Flag for India Weather past 2 weeks in Mumbai, Maharashtra, India

Now
77 °F

Clear.


Feels Like: 78 °F
Forecast: 78 / 86 °F
Wind: No wind

Location: Bombay / Santacruz

Current Time: Mar 7, 2015 at 7:33:05 AM

Latest Report: Mar 7, 2015 at 6:40 AM


Visibility: 2 mi

Pressure: 29.89 "Hg

Humidity: 42%

Dew point: 52 °F

Location of MumbaiLocation

Historic Weather in Mumbai — Graph

°F

Mumbai temperature yesterday

Maximum temperature yesterday: 93 °F (at 12:40 PM)
Minimum temperature yesterday: 73 °F (at 3:40 AM)
Average temperature yesterday: 83 °F

Past Weeks' High & Low Weather Summary

 TemperatureHumidityPressure
High102 °F (Feb 21, 3:40 PM)100% (Feb 27, 4:40 AM)30.04 "Hg (Feb 27, 4:40 AM)
Low68 °F (Feb 28, 11:40 PM)12% (Feb 21, 3:40 PM)29.71 "Hg (Mar 1, 4:40 PM)
Average79 °F57%29.88 "Hg
* Reported Feb 20 5:40 AM — Mar 7 5:40 AM, Mumbai, Weather by CustomWeather, © 2015

Note: Actual official high and low records may vary slightly from our data, if they occured in-between our weather recording intervals... More about our weather records

Advertising

Mumbai weather history for previous 24 hours

 ConditionsComfort  
Time TempWeatherWind HumidityBarometerVisibility
5:40 AM
Sat, Mar 7
75 °FClear.No wind44%29.89 "Hg2 mi
4:40 AM77 °FClear.No wind44%29.89 "Hg2 mi
3:40 AM77 °FClear.5 mph47%29.89 "Hg2 mi
2:40 AM79 °FClear.No wind42%29.92 "Hg2 mi
1:40 AM77 °FClear.No wind51%29.92 "Hg2 mi
12:40 AM79 °FClear.No wind48%29.95 "Hg2 mi
11:40 PM
Fri, Mar 6
81 °FClear.No wind48%29.95 "Hg2 mi
10:40 PM82 °FClear.5 mph42%29.95 "Hg2 mi
9:40 PM84 °FClear.7 mph43%29.95 "Hg2 mi
8:40 PM84 °FClear.5 mph45%29.92 "Hg2 mi
7:40 PM86 °FClear.8 mph40%29.89 "Hg2 mi
6:40 PM88 °FClear.7 mph40%29.86 "Hg2 mi
5:40 PM90 °FClear.9 mph38%29.86 "Hg2 mi
4:40 PM90 °FClear.12 mph38%29.86 "Hg2 mi
3:40 PM88 °FClear.14 mph33%29.86 "Hg2 mi
2:40 PM91 °FClear.14 mph32%29.89 "Hg2 mi
1:40 PM91 °FClear.10 mph36%29.92 "Hg2 mi
12:40 PM93 °FClear.7 mph26%29.95 "Hg2 mi
11:40 AM88 °FClear.3 mph35%29.98 "Hg1 mi
10:40 AM86 °FClear.7 mph35%30.01 "Hg1 mi
9:40 AM82 °FClear.6 mph37%29.98 "Hg1 mi
8:40 AM79 °FClear.No wind45%29.98 "Hg1 mi
7:40 AM73 °FClear.3 mph57%29.95 "Hg1 mi
Weather by CustomWeather, © 2015

See weather overviewHow to use our weather pages